2023/02/22 00:00:00,114.1,-5.3
2023/02/22 00:10:00,114.0,-5.6
2023/02/22 00:20:00,113.9,-5.6
2023/02/22 00:30:00,113.7,-5.3
2023/02/22 00:40:00,113.6,-5.3
2023/02/22 00:50:00,113.5,-5.2
2023/02/22 01:00:00,113.4,-5.0
2023/02/22 01:10:00,113.2,-5.1
2023/02/22 01:20:00,113.1,-5.2
2023/02/22 01:30:00,113.0,-5.2
2023/02/22 01:40:00,112.9,-5.1
2023/02/22 01:50:00,112.8,-5.1
2023/02/22 02:00:00,112.8,-5.2
2023/02/22 02:10:00,112.6,-5.0
2023/02/22 02:20:00,112.6,-4.9
2023/02/22 02:30:00,112.6,-4.8
2023/02/22 02:40:00,112.5,-4.9
2023/02/22 02:50:00,112.4,-5.0
2023/02/22 03:00:00,112.2,-4.9
2023/02/22 03:10:00,112.2,-4.8
2023/02/22 03:20:00,112.1,-4.8
2023/02/22 03:30:00,112.0,-4.8
2023/02/22 03:40:00,111.9,-4.8
2023/02/22 03:50:00,111.8,-4.8
2023/02/22 04:00:00,111.7,-4.8
2023/02/22 04:10:00,111.7,-4.8
2023/02/22 04:20:00,111.6,-4.5
2023/02/22 04:30:00,111.5,-4.7
2023/02/22 04:40:00,111.3,-4.7
2023/02/22 04:50:00,111.2,-4.6
2023/02/22 05:00:00,111.1,-4.8
2023/02/22 05:10:00,110.9,-4.8
2023/02/22 05:20:00,110.8,-4.5
2023/02/22 05:30:00,110.7,-4.8
2023/02/22 05:40:00,110.7,-4.7
2023/02/22 05:50:00,110.6,-4.6
2023/02/22 06:00:00,110.6,-4.6
2023/02/22 06:10:00,110.5,-4.6
2023/02/22 06:20:00,110.4,-4.6
2023/02/22 06:30:00,110.4,-4.5
2023/02/22 06:40:00,110.4,-4.6
2023/02/22 06:50:00,110.3,-4.5
2023/02/22 07:00:00,110.3,-4.4
2023/02/22 07:10:00,110.2,-4.3
2023/02/22 07:20:00,110.1,-4.2
2023/02/22 07:30:00,110.1,-3.9
2023/02/22 07:40:00,109.9,-3.9
2023/02/22 07:50:00,109.9,-3.6
2023/02/22 08:00:00,109.9,-3.5
2023/02/22 08:10:00,109.8,-3.5
2023/02/22 08:20:00,109.7,-3.0
2023/02/22 08:30:00,109.6,-2.8
2023/02/22 08:40:00,109.6,-2.4
2023/02/22 08:50:00,109.5,-2.3
2023/02/22 09:00:00,109.5,-1.2
2023/02/22 09:10:00,109.5,-0.7
2023/02/22 09:20:00,109.5, 1.1
2023/02/22 09:30:00,109.4, 1.2
2023/02/22 09:40:00,109.4, 1.7
2023/02/22 09:50:00,109.6, 2.6
2023/02/22 10:00:00,109.2, 1.7
2023/02/22 10:10:00,109.3, 2.2
2023/02/22 10:20:00,109.2, 1.9
2023/02/22 10:30:00,109.1, 2.3
2023/02/22 10:40:00,109.1, 2.9
2023/02/22 10:50:00,109.1, 3.8
2023/02/22 11:00:00,109.1, 4.6
2023/02/22 11:10:00,109.1, 5.5
2023/02/22 11:20:00,109.0, 6.2
2023/02/22 11:30:00,109.0, 7.3
2023/02/22 11:40:00,108.7, 7.7
2023/02/22 11:50:00,108.3, 8.8
2023/02/22 12:00:00,108.1,10.2
2023/02/22 12:10:00,107.7,10.0
2023/02/22 12:20:00,107.2,10.2
2023/02/22 12:30:00,107.1,12.3
2023/02/22 12:40:00,106.2,10.1
2023/02/22 12:50:00,105.8,10.9
2023/02/22 13:00:00,105.5,12.4
2023/02/22 13:10:00,105.3,13.6
2023/02/22 13:20:00,105.1,13.8
2023/02/22 13:30:00,105.4,13.4
2023/02/22 13:40:00,105.2,14.5
2023/02/22 13:50:00,104.7,12.4
2023/02/22 14:00:00,104.1,11.9
2023/02/22 14:10:00,104.4,12.0
2023/02/22 14:20:00,103.9,10.6
2023/02/22 14:30:00,103.8,14.2
2023/02/22 14:40:00,104.4,13.5
2023/02/22 14:50:00,102.9,10.5
2023/02/22 15:00:00,103.6,14.2
2023/02/22 15:10:00,103.7,11.2
2023/02/22 15:20:00,104.0,15.3
2023/02/22 15:30:00,104.1,16.5
2023/02/22 15:40:00,103.5,17.4
2023/02/22 15:50:00,102.8,17.3
2023/02/22 16:00:00,102.0,16.7
2023/02/22 16:10:00,101.2,16.3
2023/02/22 16:20:00,100.8,15.3
2023/02/22 16:30:00,100.2,14.5
2023/02/22 16:40:00,99.5,12.5
2023/02/22 16:50:00,99.4, 9.0
2023/02/22 17:00:00,99.2, 7.9
2023/02/22 17:10:00,99.1, 5.7
2023/02/22 17:20:00,99.1, 4.6
2023/02/22 17:30:00,98.8, 2.4
2023/02/22 17:40:00,98.8, 1.6
2023/02/22 17:50:00,98.8, 0.5
2023/02/22 18:00:00,98.7, 0.0
2023/02/22 18:10:00,98.7,-0.4
2023/02/22 18:20:00,98.7,-0.4
2023/02/22 18:30:00,98.6,-0.7
2023/02/22 18:40:00,98.5,-0.9
2023/02/22 18:50:00,98.4,-1.4
2023/02/22 19:00:00,98.3,-1.1
2023/02/22 19:10:00,98.2,-0.9
2023/02/22 19:20:00,98.1,-0.9
2023/02/22 19:30:00,98.0,-1.1
2023/02/22 19:40:00,97.9,-1.1
2023/02/22 19:50:00,97.9,-1.1
2023/02/22 20:00:00,97.8,-1.2
2023/02/22 20:10:00,97.8,-1.5
2023/02/22 20:20:00,97.7,-1.3
2023/02/22 20:30:00,97.6,-1.2
2023/02/22 20:40:00,97.5,-1.1
2023/02/22 20:50:00,97.5, 0.2
2023/02/22 21:00:00,97.5,-0.3
2023/02/22 21:10:00,97.5,-0.7
2023/02/22 21:20:00,97.5,-1.1
2023/02/22 21:30:00,97.4,-0.4
2023/02/22 21:40:00,97.4, 0.1
2023/02/22 21:50:00,97.2, 0.8
2023/02/22 22:00:00,97.2, 1.1
2023/02/22 22:10:00,97.1,-0.4
2023/02/22 22:20:00,97.0,-0.7
2023/02/22 22:30:00,97.0,-0.3
2023/02/22 22:40:00,96.9,-0.6
2023/02/22 22:50:00,96.9, 0.0
2023/02/22 23:00:00,96.9,-0.6
2023/02/22 23:10:00,96.8,-0.4
2023/02/22 23:20:00,96.7,-0.6
2023/02/22 23:30:00,96.8, 0.2
2023/02/22 23:40:00,96.7, 0.7
2023/02/22 23:50:00,96.6, 1.3
